カタログに戻る

FENGYUN 1C DEB

運用中PO
NORAD 31937·DEBRIS·🇨🇳 China

打ち上げ May 10, 1999 から Taiyuan Satellite Launch Center

Loading…

次のパス (今後24時間)

TLE

経年Source: Space-Track

元期: Sep 5, 2026, 04:04 UTC

1 31937U 99025CMN 26248.16983616  .00005335  00000-0  55435-3 0  9991
2 31937  99.2700  23.5153 0153036 184.5686 175.4136 14.82146439700115

AllMySatでFENGYUN 1C DEBをリアルタイム追跡

Download on the App Store